| time (UTC) | temp C | wind direction | speed KPH | gust KPH | rain 1hr cm | rain 24hr cm | rain mn cm | humidity % | barometer mb |
| 20260505153100 | 5 | 284 | 6.4 | 14.5 | 0.00 | 0.00 | 0.00 | 76 | 1014.1 |
| 20260505151603 | 5 | 333 | 6.4 | 14.5 | 0.00 | 0.00 | 0.00 | 77 | 1014.0 |
| 20260505124551 | 2 | 0 | 0.0 | 1.6 | 0.00 | 0.00 | 0.00 | 84 | 1013.9 |
| 20260505123049 | 2 | 0 | 0.0 | 1.6 | 0.00 | 0.00 | 0.00 | 84 | 1013.9 |
| 20260505121606 | 3 | 0 | 3.2 | 6.4 | 0.00 | 0.00 | 0.00 | 82 | 1013.9 |
| 20260505120047 | 3 | 261 | 1.6 | 4.8 | 0.00 | 0.00 | 0.00 | 82 | 1013.9 |
| 20260505114545 | 3 | 263 | 3.2 | 6.4 | 0.00 | 0.00 | 0.00 | 82 | 1014.2 |
| 20260505113048 | 3 | 262 | 1.6 | 6.4 | 0.00 | 0.00 | 0.00 | 82 | 1013.9 |
| 20260505111547 | 3 | 310 | 0.0 | 1.6 | 0.00 | 0.00 | 0.00 | 81 | 1013.9 |
| 20260505101554 | 4 | 0 | 0.0 | 3.2 | 0.00 | 0.00 | 0.00 | 77 | 1013.9 |
| 20260505100050 | 4 | 242 | 0.0 | 4.8 | 0.00 | 0.00 | 0.00 | 76 | 1013.9 |
| 20260505094547 | 4 | 0 | 0.0 | 3.2 | 0.00 | 0.00 | 0.00 | 76 | 1014.2 |
| 20260505093044 | 5 | 0 | 1.6 | 6.4 | 0.00 | 0.00 | 0.00 | 75 | 1014.2 |
| 20260505091548 | 5 | 298 | 0.0 | 6.4 | 0.00 | 0.00 | 0.00 | 75 | 1014.4 |
| 20260505090059 | 5 | 253 | 1.6 | 6.4 | 0.00 | 0.00 | 0.00 | 74 | 1014.5 |
| 20260505084552 | 5 | 227 | 4.8 | 8.0 | 0.00 | 0.00 | 0.00 | 75 | 1014.7 |
| 20260505083054 | 5 | 244 | 0.0 | 4.8 | 0.00 | 0.00 | 0.00 | 75 | 1015.0 |
| 20260505081551 | 5 | 255 | 1.6 | 3.2 | 0.00 | 0.00 | 0.00 | 75 | 1015.0 |
| 20260505080053 | 5 | 0 | 0.0 | 0.0 | 0.00 | 0.00 | 0.00 | 73 | 1015.3 |
| 20260505074550 | 5 | 0 | 0.0 | 0.0 | 0.00 | 0.00 | 0.00 | 73 | 1015.3 |
| 20260505073051 | 5 | 0 | 0.0 | 1.6 | 0.00 | 0.00 | 0.00 | 71 | 1015.5 |
| 20260505071545 | 5 | 0 | 0.0 | 1.6 | 0.00 | 0.00 | 0.00 | 71 | 1015.8 |
| 20260505070051 | 5 | 0 | 0.0 | 1.6 | 0.00 | 0.00 | 0.00 | 70 | 1015.6 |
| 20260505064556 | 6 | 0 | 0.0 | 3.2 | 0.00 | 0.00 | 0.00 | 69 | 1015.6 |
| 20260505063047 | 5 | 94 | 3.2 | 4.8 | 0.00 | 0.00 | 0.00 | 69 | 1015.8 |
| 20260505061548 | 6 | 148 | 0.0 | 1.6 | 0.00 | 0.00 | 0.00 | 66 | 1015.4 |
| 20260505060050 | 6 | 167 | 1.6 | 9.7 | 0.00 | 0.00 | 0.00 | 65 | 1015.6 |
| 20260505054549 | 6 | 163 | 0.0 | 6.4 | 0.00 | 0.00 | 0.00 | 62 | 1015.3 |
| 20260505053059 | 7 | 180 | 1.6 | 4.8 | 0.00 | 0.00 | 0.00 | 58 | 1015.5 |
| 20260505051549 | 8 | 331 | 0.0 | 6.4 | 0.00 | 0.00 | 0.00 | 53 | 1015.2 |
| 20260505041550 | 11 | 309 | 1.6 | 14.5 | 0.00 | 0.00 | 0.00 | 25 | 1014.6 |
| 20260505040053 | 11 | 300 | 0.0 | 14.5 | 0.00 | 0.00 | 0.00 | 24 | 1014.5 |
| 20260505034545 | 12 | 318 | 4.8 | 19.3 | 0.00 | 0.00 | 0.00 | 23 | 1014.4 |
| 20260505033106 | 12 | 59 | 1.6 | 40.2 | 0.00 | 0.00 | 0.00 | 22 | 1014.0 |
| 20260505031542 | 12 | 242 | 12.9 | 35.4 | 0.00 | 0.00 | 0.00 | 22 | 1013.8 |
| 20260505030052 | 12 | 250 | 17.7 | 59.5 | 0.00 | 0.00 | 0.00 | 21 | 1013.3 |
| 20260505024550 | 12 | 313 | 20.9 | 57.9 | 0.00 | 0.00 | 0.00 | 19 | 1012.3 |
| 20260505023100 | 13 | 228 | 32.2 | 66.0 | 0.00 | 0.00 | 0.00 | 19 | 1012.3 |
| 20260505021545 | 13 | 251 | 37.0 | 72.4 | 0.00 | 0.00 | 0.00 | 19 | 1012.5 |
| 20260505020050 | 13 | 261 | 30.6 | 57.9 | 0.00 | 0.00 | 0.00 | 18 | 1012.3 |
| 20260505014545 | 13 | 242 | 33.8 | 56.3 | 0.00 | 0.00 | 0.00 | 18 | 1012.3 |
| 20260505013043 | 13 | 275 | 27.4 | 53.1 | 0.00 | 0.00 | 0.00 | 20 | 1012.2 |
| 20260505011557 | 14 | 227 | 19.3 | 38.6 | 0.00 | 0.00 | 0.00 | 20 | 1012.0 |
| 20260505010049 | 14 | 268 | 17.7 | 35.4 | 0.00 | 0.00 | 0.00 | 20 | 1011.9 |
| 20260505004549 | 15 | 277 | 20.9 | 41.8 | 0.00 | 0.00 | 0.00 | 19 | 1012.0 |
| 20260505003046 | 15 | 151 | 20.9 | 48.3 | 0.00 | 0.00 | 0.00 | 19 | 1011.9 |
| 20260505001552 | 15 | 196 | 19.3 | 37.0 | 0.00 | 0.00 | 0.00 | 21 | 1011.9 |
| 20260505000056 | 15 | 297 | 20.9 | 35.4 | 0.00 | 0.00 | 0.00 | 22 | 1011.8 |
| 20260504234613 | 15 | 299 | 20.9 | 37.0 | 0.00 | 0.00 | 0.00 | 22 | 1011.8 |
| 20260504233050 | 15 | 238 | 29.0 | 43.5 | 0.00 | 0.00 | 0.00 | 23 | 1011.8 |
| 20260504231554 | 16 | 227 | 22.5 | 43.5 | 0.00 | 0.00 | 0.00 | 23 | 1011.7 |
| 20260504230046 | 16 | 199 | 20.9 | 41.8 | 0.00 | 0.00 | 0.00 | 24 | 1011.7 |
| 20260504224600 | 16 | 178 | 17.7 | 45.1 | 0.00 | 0.00 | 0.00 | 24 | 1011.5 |
| 20260504223050 | 16 | 212 | 17.7 | 43.5 | 0.00 | 0.00 | 0.00 | 25 | 1012.0 |
| 20260504221603 | 16 | 200 | 19.3 | 41.8 | 0.00 | 0.00 | 0.00 | 25 | 1012.1 |
| 20260504220057 | 16 | 227 | 22.5 | 43.5 | 0.00 | 0.00 | 0.00 | 25 | 1012.3 |
| 20260504214556 | 16 | 231 | 12.9 | 30.6 | 0.00 | 0.00 | 0.00 | 25 | 1012.5 |
| 20260504213102 | 16 | 279 | 24.1 | 33.8 | 0.00 | 0.00 | 0.00 | 25 | 1012.9 |
| 20260504211554 | 16 | 295 | 14.5 | 29.0 | 0.00 | 0.00 | 0.00 | 26 | 1012.9 |
| 20260504210054 | 16 | 285 | 19.3 | 43.5 | 0.00 | 0.00 | 0.00 | 25 | 1013.4 |
| 20260504204625 | 16 | 279 | 17.7 | 33.8 | 0.00 | 0.00 | 0.00 | 24 | 1013.7 |
| 20260504203050 | 15 | 290 | 24.1 | 46.7 | 0.00 | 0.00 | 0.00 | 23 | 1013.9 |
| 20260504201554 | 16 | 254 | 17.7 | 33.8 | 0.00 | 0.00 | 0.00 | 26 | 1013.9 |
| 20260504200055 | 15 | 250 | 16.1 | 37.0 | 0.00 | 0.00 | 0.00 | 28 | 1014.3 |
| 20260504194555 | 15 | 250 | 22.5 | 30.6 | 0.00 | 0.00 | 0.00 | 28 | 1014.4 |
| 20260504193045 | 15 | 289 | 19.3 | 37.0 | 0.00 | 0.00 | 0.00 | 29 | 1014.6 |
| 20260504191549 | 15 | 252 | 14.5 | 33.8 | 0.00 | 0.00 | 0.00 | 30 | 1014.9 |
| 20260504190056 | 14 | 263 | 25.7 | 37.0 | 0.00 | 0.00 | 0.00 | 31 | 1015.1 |
| 20260504184602 | 14 | 284 | 20.9 | 35.4 | 0.00 | 0.00 | 0.00 | 32 | 1015.2 |
| 20260504183054 | 13 | 243 | 24.1 | 38.6 | 0.00 | 0.00 | 0.00 | 34 | 1015.5 |
| 20260504181550 | 13 | 273 | 27.4 | 43.5 | 0.00 | 0.00 | 0.00 | 34 | 1015.5 |
| 20260504180051 | 13 | 277 | 25.7 | 43.5 | 0.00 | 0.00 | 0.00 | 38 | 1015.8 |
| 20260504174550 | 13 | 282 | 27.4 | 43.5 | 0.00 | 0.00 | 0.00 | 39 | 1015.5 |
| 20260504173049 | 12 | 226 | 32.2 | 61.2 | 0.00 | 0.00 | 0.00 | 41 | 1015.2 |
| 20260504171549 | 12 | 251 | 25.7 | 61.2 | 0.00 | 0.00 | 0.00 | 41 | 1015.5 |